WAT2918 MPTO-MTPP

Flight info

Callsign WAT2918
Flight time 1h 49m
Altitude 35000
Route EGETA3A EGETA DCT AGUJA UM597 LIDOL UG444 APLED DCT MESLI MESLI1C
Aircraft A320/M-SDE3FGHIRWY/LB1

Departure

Time 2026-04-21 13:53
Airport Tocumen International Airport (MPTO)

Arrival

Time 2026-04-21 15:42
Airport Toussaint Louverture International Airport (MTPP)
Time Latitude Longitude Altitude Speed Heading
2026-04-21 13:41 9.05915 -79.38985 40 ft 0 kts 120°
2026-04-21 13:46 9.05916 -79.38988 40 ft 2 kts 120°
2026-04-21 13:46 9.05924 -79.39001 40 ft 2 kts 120°
2026-04-21 13:46 9.05932 -79.39014 41 ft 2 kts 131°
2026-04-21 13:46 9.05944 -79.39023 41 ft 2 kts 160°
2026-04-21 13:47 9.05959 -79.39025 41 ft 2 kts 187°
2026-04-21 13:47 9.05970 -79.39022 41 ft 0 kts 206°
2026-04-21 13:47 9.05976 -79.39018 41 ft 0 kts 210°
2026-04-21 13:48 9.05968 -79.39023 41 ft 2 kts 210°
2026-04-21 13:48 9.05946 -79.39036 41 ft 5 kts 210°
2026-04-21 13:49 9.05906 -79.39059 40 ft 7 kts 210°
2026-04-21 13:49 9.05850 -79.39092 39 ft 10 kts 210°
2026-04-21 13:49 9.05784 -79.39131 39 ft 11 kts 211°
2026-04-21 13:49 9.05710 -79.39122 38 ft 12 kts 131°
2026-04-21 13:50 9.05662 -79.39049 38 ft 12 kts 123°
2026-04-21 13:50 9.05598 -79.38989 37 ft 13 kts 172°
2026-04-21 13:50 9.05507 -79.39030 35 ft 15 kts 208°
2026-04-21 13:50 9.05409 -79.39085 34 ft 16 kts 210°
2026-04-21 13:51 9.05304 -79.39149 32 ft 17 kts 212°
2026-04-21 13:51 9.05198 -79.39217 32 ft 17 kts 210°
2026-04-21 13:51 9.05090 -79.39279 32 ft 17 kts 211°
2026-04-21 13:51 9.04982 -79.39339 32 ft 17 kts 203°
2026-04-21 13:52 9.04866 -79.39375 32 ft 17 kts 169°
2026-04-21 13:52 9.04790 -79.39296 31 ft 16 kts 110°
2026-04-21 13:52 9.04821 -79.39226 30 ft 0 kts 28°
2026-04-21 13:52 9.04865 -79.39201 30 ft 34 kts 28°
2026-04-21 13:53 9.05314 -79.38950 33 ft 110 kts 30°
2026-04-21 13:53 9.06171 -79.38458 50 ft 170 kts 28°
2026-04-21 13:53 9.07246 -79.37854 627 ft 178 kts 29°
2026-04-21 13:53 9.08241 -79.37164 1539 ft 175 kts 37°
2026-04-21 13:54 9.09200 -79.36398 2333 ft 180 kts 35°
2026-04-21 13:54 9.10242 -79.35609 2934 ft 197 kts 36°
2026-04-21 13:54 9.11378 -79.34748 3561 ft 214 kts 36°
2026-04-21 13:54 9.12650 -79.33783 4179 ft 236 kts 36°
2026-04-21 13:55 9.13970 -79.32781 5155 ft 241 kts 37°
2026-04-21 13:55 9.15290 -79.31779 6190 ft 244 kts 37°
2026-04-21 13:55 9.16649 -79.30747 7208 ft 249 kts 37°
2026-04-21 13:55 9.18029 -79.29698 8241 ft 252 kts 37°
2026-04-21 13:56 9.19430 -79.28635 9244 ft 257 kts 37°
2026-04-21 13:56 9.20882 -79.27532 10246 ft 261 kts 37°
2026-04-21 13:56 9.22337 -79.26427 11059 ft 273 kts 38°
2026-04-21 13:56 9.23929 -79.25219 11630 ft 294 kts 38°
2026-04-21 13:57 9.25645 -79.23915 11939 ft 324 kts 38°
2026-04-21 13:57 9.27534 -79.22480 11996 ft 359 kts 37°
2026-04-21 13:57 9.29664 -79.20863 12001 ft 393 kts 37°
2026-04-21 13:57 9.31938 -79.19137 12006 ft 422 kts 37°
2026-04-21 13:58 9.34327 -79.17325 12729 ft 428 kts 37°
2026-04-21 13:58 9.36682 -79.15535 13715 ft 427 kts 37°
2026-04-21 13:58 9.39059 -79.13726 14642 ft 426 kts 38°
2026-04-21 13:58 9.41426 -79.11924 15573 ft 424 kts 38°
2026-04-21 13:59 9.43764 -79.10141 16485 ft 421 kts 38°
2026-04-21 13:59 9.46091 -79.08365 17388 ft 417 kts 38°
2026-04-21 13:59 9.48411 -79.06593 18299 ft 414 kts 38°
2026-04-21 13:59 9.50684 -79.04854 19200 ft 409 kts 38°
2026-04-21 14:00 9.52925 -79.03138 20091 ft 404 kts 39°
2026-04-21 14:00 9.55115 -79.01447 20932 ft 385 kts 40°
2026-04-21 14:00 9.57221 -78.99764 21374 ft 386 kts 43°
2026-04-21 14:00 9.59118 -78.97825 21553 ft 394 kts 49°
2026-04-21 14:01 9.60957 -78.95718 21899 ft 397 kts 50°
2026-04-21 14:01 9.62768 -78.93627 22323 ft 399 kts 50°
2026-04-21 14:01 9.64621 -78.91509 22735 ft 401 kts 50°
2026-04-21 14:01 9.66491 -78.89392 23114 ft 404 kts 49°
2026-04-21 14:02 9.67749 -78.87977 23369 ft 405 kts 49°
2026-04-21 14:02 9.70268 -78.85153 23825 ft 410 kts 49°
2026-04-21 14:02 9.72206 -78.82989 24166 ft 414 kts 49°
2026-04-21 14:03 9.76113 -78.78633 24855 ft 420 kts 49°
2026-04-21 14:03 9.78073 -78.76450 25178 ft 423 kts 49°
2026-04-21 14:03 9.80066 -78.74229 25494 ft 426 kts 49°
2026-04-21 14:03 9.82058 -78.72010 25792 ft 429 kts 49°
2026-04-21 14:04 9.84073 -78.69768 26107 ft 432 kts 48°
2026-04-21 14:04 9.86110 -78.67499 26417 ft 435 kts 48°
2026-04-21 14:04 9.88142 -78.65236 26709 ft 437 kts 48°
2026-04-21 14:04 9.90206 -78.62937 26996 ft 440 kts 48°
2026-04-21 14:05 9.92278 -78.60628 27308 ft 442 kts 48°
2026-04-21 14:05 9.94345 -78.58326 27717 ft 442 kts 48°
2026-04-21 14:05 9.96417 -78.56018 28123 ft 442 kts 48°
2026-04-21 14:05 9.98474 -78.53725 28489 ft 442 kts 48°
2026-04-21 14:06 10.00566 -78.51393 28859 ft 443 kts 48°
2026-04-21 14:06 10.02614 -78.49110 29243 ft 443 kts 48°
2026-04-21 14:06 10.04692 -78.46792 29655 ft 442 kts 48°
2026-04-21 14:06 10.06771 -78.44471 30079 ft 441 kts 48°
2026-04-21 14:07 10.08841 -78.42162 30490 ft 440 kts 48°
2026-04-21 14:07 10.10886 -78.39881 30894 ft 440 kts 48°
2026-04-21 14:07 10.12982 -78.37556 31289 ft 439 kts 48°
2026-04-21 14:07 10.15038 -78.35276 31663 ft 439 kts 48°
2026-04-21 14:08 10.17108 -78.32970 32031 ft 439 kts 49°
2026-04-21 14:08 10.19158 -78.30670 32387 ft 439 kts 49°
2026-04-21 14:08 10.21207 -78.28373 32728 ft 438 kts 49°
2026-04-21 14:08 10.23249 -78.26084 33094 ft 438 kts 49°
2026-04-21 14:09 10.25311 -78.23775 33436 ft 439 kts 49°
2026-04-21 14:09 10.27377 -78.21463 33730 ft 440 kts 49°
2026-04-21 14:09 10.29439 -78.19154 34008 ft 441 kts 49°
2026-04-21 14:09 10.31489 -78.16859 34282 ft 441 kts 48°
2026-04-21 14:10 10.33569 -78.14532 34548 ft 442 kts 48°
2026-04-21 14:10 10.35656 -78.12196 34804 ft 443 kts 48°
2026-04-21 14:10 10.37710 -78.09897 34970 ft 444 kts 48°
2026-04-21 14:11 10.41873 -78.05236 34983 ft 445 kts 48°
2026-04-21 14:11 10.46051 -78.00557 34987 ft 446 kts 48°
2026-04-21 14:12 10.50218 -77.95886 34989 ft 446 kts 48°
2026-04-21 14:12 10.54407 -77.91189 34989 ft 446 kts 48°
2026-04-21 14:13 10.58577 -77.86512 34990 ft 446 kts 49°
2026-04-21 14:13 10.62750 -77.81827 34989 ft 446 kts 48°
2026-04-21 14:14 10.66913 -77.77154 34989 ft 445 kts 48°
2026-04-21 14:14 10.71064 -77.72490 34988 ft 446 kts 49°
2026-04-21 14:15 10.75232 -77.67806 34987 ft 446 kts 48°
2026-04-21 14:15 10.79410 -77.63109 34989 ft 446 kts 48°
2026-04-21 14:16 10.83617 -77.58377 34988 ft 447 kts 48°
2026-04-21 14:16 10.87779 -77.53692 34989 ft 446 kts 48°
2026-04-21 14:17 10.91965 -77.48977 34986 ft 447 kts 49°
2026-04-21 14:17 10.96130 -77.44281 34989 ft 447 kts 48°
2026-04-21 14:18 11.00327 -77.39618 34989 ft 448 kts 47°
2026-04-21 14:18 11.04651 -77.35038 34988 ft 448 kts 46°
2026-04-21 14:19 11.08980 -77.30424 34988 ft 449 kts 47°
2026-04-21 14:19 11.13306 -77.25817 34988 ft 449 kts 46°
2026-04-21 14:20 11.17658 -77.21191 34987 ft 450 kts 47°
2026-04-21 14:20 11.21979 -77.16582 34987 ft 450 kts 47°
2026-04-21 14:21 11.26318 -77.11947 34988 ft 449 kts 47°
2026-04-21 14:21 11.30635 -77.07327 34988 ft 450 kts 47°
2026-04-21 14:22 11.34951 -77.02707 34988 ft 450 kts 47°
2026-04-21 14:22 11.39323 -76.98096 34988 ft 450 kts 45°
2026-04-21 14:23 11.43794 -76.93635 34987 ft 450 kts 45°
2026-04-21 14:23 11.48273 -76.89163 34983 ft 451 kts 45°
2026-04-21 14:24 11.52778 -76.84644 34980 ft 451 kts 45°
2026-04-21 14:24 11.57251 -76.80148 34980 ft 451 kts 45°
2026-04-21 14:25 11.61718 -76.75652 34981 ft 451 kts 45°
2026-04-21 14:25 11.66172 -76.71168 34981 ft 451 kts 45°
2026-04-21 14:26 11.70647 -76.66661 34981 ft 451 kts 45°
2026-04-21 14:26 11.75126 -76.62148 34980 ft 451 kts 45°
2026-04-21 14:27 11.79605 -76.57632 34977 ft 452 kts 45°
2026-04-21 14:27 11.84064 -76.53133 34977 ft 452 kts 45°
2026-04-21 14:28 11.88560 -76.48593 34976 ft 452 kts 44°
2026-04-21 14:28 11.93052 -76.44057 34976 ft 457 kts 44°
2026-04-21 14:29 11.97658 -76.39404 34974 ft 468 kts 44°
2026-04-21 14:29 12.02331 -76.34679 34975 ft 473 kts 45°
2026-04-21 14:30 12.07024 -76.29904 34975 ft 474 kts 45°
2026-04-21 14:30 12.11698 -76.25162 34973 ft 475 kts 44°
2026-04-21 14:31 12.16418 -76.20406 34972 ft 475 kts 44°
2026-04-21 14:31 12.21133 -76.15635 34973 ft 475 kts 44°
2026-04-21 14:32 12.25851 -76.10849 34973 ft 475 kts 44°
2026-04-21 14:32 12.30542 -76.06099 34978 ft 474 kts 44°
2026-04-21 14:33 12.35239 -76.01345 34984 ft 474 kts 44°
2026-04-21 14:33 12.39925 -75.96594 34989 ft 474 kts 44°
2026-04-21 14:34 12.44611 -75.91834 34995 ft 475 kts 44°
2026-04-21 14:34 12.49316 -75.87054 34996 ft 474 kts 44°
2026-04-21 14:35 12.53980 -75.82313 35000 ft 473 kts 44°
2026-04-21 14:35 12.58662 -75.77550 35001 ft 473 kts 44°
2026-04-21 14:36 12.63320 -75.72808 35002 ft 472 kts 44°
2026-04-21 14:36 12.67987 -75.68056 35003 ft 472 kts 44°
2026-04-21 14:37 12.72637 -75.63316 35003 ft 473 kts 44°
2026-04-21 14:37 12.77304 -75.58557 35003 ft 472 kts 44°
2026-04-21 14:38 12.81976 -75.53790 35004 ft 471 kts 44°
2026-04-21 14:38 12.86615 -75.49049 35006 ft 470 kts 44°
2026-04-21 14:39 12.91257 -75.44303 35006 ft 470 kts 44°
2026-04-21 14:39 12.95885 -75.39575 35008 ft 470 kts 44°
2026-04-21 14:40 13.00522 -75.34831 35008 ft 470 kts 44°
2026-04-21 14:40 13.05157 -75.30051 35009 ft 471 kts 44°
2026-04-21 14:41 13.09803 -75.25266 35009 ft 471 kts 44°
2026-04-21 14:41 13.14466 -75.20499 35009 ft 471 kts 44°
2026-04-21 14:42 13.19109 -75.15743 35008 ft 471 kts 44°
2026-04-21 14:42 13.23762 -75.10985 35003 ft 471 kts 44°
2026-04-21 14:43 13.28391 -75.06242 34997 ft 472 kts 44°
2026-04-21 14:43 13.33063 -75.01447 34997 ft 473 kts 44°
2026-04-21 14:44 13.37697 -74.96688 34997 ft 473 kts 44°
2026-04-21 14:44 13.42362 -74.91893 34997 ft 472 kts 44°
2026-04-21 14:45 13.47014 -74.87108 34999 ft 472 kts 44°
2026-04-21 14:45 13.51668 -74.82318 35000 ft 472 kts 44°
2026-04-21 14:46 13.56312 -74.77535 35000 ft 473 kts 44°
2026-04-21 14:46 13.60971 -74.72733 35000 ft 473 kts 44°
2026-04-21 14:47 13.65641 -74.67918 35002 ft 473 kts 44°
2026-04-21 14:47 13.70282 -74.63130 35003 ft 473 kts 44°
2026-04-21 14:48 13.74939 -74.58323 35002 ft 474 kts 44°
2026-04-21 14:48 13.79566 -74.53543 35005 ft 474 kts 44°
2026-04-21 14:49 13.84244 -74.48708 35006 ft 473 kts 44°
2026-04-21 14:49 13.88867 -74.43926 35006 ft 474 kts 44°
2026-04-21 14:50 13.92742 -74.39916 35009 ft 474 kts 44°
2026-04-21 14:50 13.98164 -74.34299 35009 ft 474 kts 44°
2026-04-21 14:51 14.02801 -74.29462 35008 ft 475 kts 44°
2026-04-21 14:51 14.07462 -74.24614 35011 ft 475 kts 44°
2026-04-21 14:52 14.12104 -74.19804 35009 ft 475 kts 44°
2026-04-21 14:52 14.16773 -74.14983 35010 ft 475 kts 44°
2026-04-21 14:53 14.21438 -74.10152 35009 ft 476 kts 44°
2026-04-21 14:53 14.26106 -74.05302 35011 ft 475 kts 44°
2026-04-21 14:54 14.30752 -74.00468 35009 ft 474 kts 44°
2026-04-21 14:54 14.35416 -73.95656 35009 ft 475 kts 43°
2026-04-21 14:55 14.40093 -73.90838 35008 ft 475 kts 43°
2026-04-21 14:55 14.44761 -73.86017 35009 ft 476 kts 43°
2026-04-21 14:56 14.49451 -73.81168 35010 ft 476 kts 43°
2026-04-21 14:56 14.51760 -73.78778 35002 ft 462 kts 43°
2026-04-21 14:56 14.54027 -73.76428 35008 ft 453 kts 43°
2026-04-21 14:57 14.58469 -73.71826 35009 ft 453 kts 43°
2026-04-21 14:57 14.62910 -73.67223 35009 ft 452 kts 43°
2026-04-21 14:58 14.67358 -73.62610 35009 ft 452 kts 43°
2026-04-21 14:58 14.71805 -73.57992 35008 ft 452 kts 43°
2026-04-21 14:59 14.76231 -73.53393 35010 ft 452 kts 43°
2026-04-21 14:59 14.80695 -73.48751 35019 ft 453 kts 43°
2026-04-21 15:00 14.85139 -73.44127 35027 ft 453 kts 43°
2026-04-21 15:00 14.89700 -73.39603 35029 ft 452 kts 40°
2026-04-21 15:01 14.94305 -73.35175 35030 ft 451 kts 40°
2026-04-21 15:01 14.98868 -73.30746 35029 ft 451 kts 41°
2026-04-21 15:02 15.03532 -73.26386 35031 ft 450 kts 36°
2026-04-21 15:02 15.08715 -73.22747 35035 ft 448 kts 26°
2026-04-21 15:03 15.14346 -73.20063 35033 ft 445 kts 17°
2026-04-21 15:03 15.20300 -73.18227 35035 ft 443 kts 12°
2026-04-21 15:04 15.26260 -73.16569 35033 ft 444 kts 12°
2026-04-21 15:04 15.32218 -73.14899 35036 ft 443 kts 12°
2026-04-21 15:05 15.38177 -73.13217 35038 ft 443 kts 12°
2026-04-21 15:05 15.47133 -73.10681 35042 ft 443 kts 12°
2026-04-21 15:06 15.53106 -73.08988 35041 ft 443 kts 12°
2026-04-21 15:06 15.59070 -73.07303 35041 ft 443 kts 12°
2026-04-21 15:07 15.65037 -73.05617 35039 ft 442 kts 12°
2026-04-21 15:07 15.71028 -73.03922 35031 ft 442 kts 12°
2026-04-21 15:08 15.76943 -73.02244 35028 ft 442 kts 12°
2026-04-21 15:08 15.82910 -73.00550 35027 ft 442 kts 12°
2026-04-21 15:09 15.88884 -72.98855 35027 ft 442 kts 12°
2026-04-21 15:09 15.94844 -72.97161 35029 ft 441 kts 12°
2026-04-21 15:10 16.00769 -72.95476 35029 ft 441 kts 12°
2026-04-21 15:10 16.06720 -72.93784 35029 ft 441 kts 12°
2026-04-21 15:11 16.12631 -72.92100 35030 ft 441 kts 12°
2026-04-21 15:11 16.18580 -72.90411 35030 ft 441 kts 12°
2026-04-21 15:12 16.24534 -72.88712 35031 ft 441 kts 12°
2026-04-21 15:12 16.30466 -72.87022 35031 ft 440 kts 11°
2026-04-21 15:13 16.36385 -72.85332 35032 ft 440 kts 11°
2026-04-21 15:13 16.42277 -72.83645 35036 ft 440 kts 11°
2026-04-21 15:14 16.48164 -72.81957 35038 ft 440 kts 11°
2026-04-21 15:14 16.54106 -72.80252 35041 ft 440 kts 11°
2026-04-21 15:15 16.59997 -72.78560 35041 ft 440 kts 11°
2026-04-21 15:15 16.65941 -72.76852 35044 ft 439 kts 11°
2026-04-21 15:16 16.71839 -72.75154 35044 ft 439 kts 11°
2026-04-21 15:16 16.77718 -72.73462 35046 ft 438 kts 11°
2026-04-21 15:17 16.83616 -72.71761 35048 ft 438 kts 11°
2026-04-21 15:17 16.89518 -72.70058 35050 ft 438 kts 11°
2026-04-21 15:18 16.95419 -72.68353 35050 ft 438 kts 11°
2026-04-21 15:18 17.01337 -72.66845 34870 ft 436 kts
2026-04-21 15:19 17.04291 -72.66332 34523 ft 433 kts
2026-04-21 15:19 17.07294 -72.65848 34095 ft 429 kts
2026-04-21 15:19 17.10241 -72.65378 33619 ft 425 kts
2026-04-21 15:19 17.13150 -72.64913 33070 ft 423 kts
2026-04-21 15:20 17.16066 -72.64447 32534 ft 423 kts
2026-04-21 15:20 17.18989 -72.63980 31938 ft 424 kts
2026-04-21 15:20 17.21882 -72.63515 31305 ft 424 kts
2026-04-21 15:20 17.24815 -72.63042 30650 ft 426 kts
2026-04-21 15:21 17.27759 -72.62567 29978 ft 427 kts
2026-04-21 15:21 17.30716 -72.62090 29297 ft 429 kts
2026-04-21 15:21 17.33669 -72.61613 28622 ft 430 kts
2026-04-21 15:21 17.36625 -72.61134 27942 ft 431 kts
2026-04-21 15:22 17.39605 -72.60652 27209 ft 433 kts
2026-04-21 15:22 17.42597 -72.60166 26610 ft 431 kts
2026-04-21 15:22 17.45551 -72.59685 26121 ft 427 kts
2026-04-21 15:22 17.48467 -72.59209 25625 ft 424 kts
2026-04-21 15:23 17.51398 -72.58733 25124 ft 421 kts
2026-04-21 15:23 17.54271 -72.58266 24631 ft 418 kts
2026-04-21 15:23 17.57172 -72.57794 24132 ft 415 kts
2026-04-21 15:23 17.60042 -72.57327 23640 ft 412 kts
2026-04-21 15:24 17.62878 -72.56865 23151 ft 410 kts
2026-04-21 15:24 17.65717 -72.56402 22659 ft 408 kts
2026-04-21 15:24 17.68517 -72.55946 22171 ft 406 kts
2026-04-21 15:24 17.71284 -72.55496 21692 ft 404 kts
2026-04-21 15:25 17.74050 -72.55044 21210 ft 402 kts
2026-04-21 15:25 17.76812 -72.54592 20732 ft 400 kts
2026-04-21 15:25 17.79568 -72.54140 20252 ft 397 kts
2026-04-21 15:25 17.82302 -72.53693 19775 ft 395 kts
2026-04-21 15:26 17.85008 -72.53252 19302 ft 392 kts
2026-04-21 15:26 17.87707 -72.52805 18824 ft 390 kts
2026-04-21 15:26 17.90308 -72.52057 18346 ft 389 kts 19°
2026-04-21 15:26 17.92733 -72.50841 17877 ft 388 kts 29°
2026-04-21 15:27 17.95009 -72.49281 17402 ft 386 kts 33°
2026-04-21 15:27 17.97205 -72.47678 16933 ft 384 kts 33°
2026-04-21 15:27 17.99401 -72.46066 16457 ft 382 kts 33°
2026-04-21 15:27 18.01569 -72.44482 15993 ft 380 kts 33°
2026-04-21 15:28 18.03758 -72.42894 15525 ft 377 kts 33°
2026-04-21 15:28 18.05884 -72.41358 15065 ft 375 kts 33°
2026-04-21 15:28 18.08029 -72.39809 14599 ft 372 kts 33°
2026-04-21 15:28 18.10198 -72.38280 14125 ft 369 kts 29°
2026-04-21 15:29 18.12565 -72.37401 13634 ft 364 kts
2026-04-21 15:29 18.15076 -72.37565 13160 ft 359 kts 344°
2026-04-21 15:29 18.17322 -72.38648 12700 ft 356 kts 326°
2026-04-21 15:29 18.19337 -72.40162 12251 ft 353 kts 324°
2026-04-21 15:30 18.21323 -72.41665 11798 ft 350 kts 324°
2026-04-21 15:30 18.23307 -72.43159 11342 ft 348 kts 324°
2026-04-21 15:30 18.25290 -72.44647 10892 ft 345 kts 324°
2026-04-21 15:30 18.27221 -72.46094 10474 ft 342 kts 324°
2026-04-21 15:31 18.29143 -72.47528 10340 ft 327 kts 324°
2026-04-21 15:31 18.30933 -72.48866 10241 ft 302 kts 324°
2026-04-21 15:31 18.32573 -72.50099 10173 ft 284 kts 324°
2026-04-21 15:31 18.34173 -72.51299 10114 ft 276 kts 324°
2026-04-21 15:32 18.35732 -72.52467 9820 ft 276 kts 324°
2026-04-21 15:32 18.37278 -72.53624 9508 ft 274 kts 324°
2026-04-21 15:32 18.38839 -72.54789 9196 ft 273 kts 324°
2026-04-21 15:32 18.40399 -72.55955 8887 ft 271 kts 324°
2026-04-21 15:33 18.41926 -72.57097 8584 ft 269 kts 324°
2026-04-21 15:33 18.43443 -72.58231 8286 ft 268 kts 324°
2026-04-21 15:33 18.44966 -72.59370 7979 ft 266 kts 324°
2026-04-21 15:33 18.46468 -72.60494 7686 ft 265 kts 324°
2026-04-21 15:34 18.47969 -72.61617 7388 ft 263 kts 325°
2026-04-21 15:34 18.49468 -72.62739 7089 ft 262 kts 325°
2026-04-21 15:34 18.50953 -72.63850 6795 ft 260 kts 325°
2026-04-21 15:34 18.52432 -72.64958 6504 ft 259 kts 325°
2026-04-21 15:35 18.53890 -72.66051 6215 ft 258 kts 325°
2026-04-21 15:35 18.55426 -72.67041 5893 ft 256 kts 342°
2026-04-21 15:35 18.57174 -72.67213 5591 ft 253 kts 11°
2026-04-21 15:35 18.58778 -72.66507 5300 ft 251 kts 38°
2026-04-21 15:36 18.59899 -72.65116 5004 ft 250 kts 64°
2026-04-21 15:36 18.60302 -72.63349 4707 ft 250 kts 90°
2026-04-21 15:36 18.59909 -72.61582 4411 ft 250 kts 117°
2026-04-21 15:36 18.58858 -72.60129 4146 ft 250 kts 131°
2026-04-21 15:37 18.57685 -72.58794 3874 ft 249 kts 130°
2026-04-21 15:37 18.56750 -72.57295 3571 ft 247 kts 106°
2026-04-21 15:37 18.56591 -72.55513 3343 ft 241 kts 85°
2026-04-21 15:37 18.56720 -72.53803 3317 ft 226 kts 84°
2026-04-21 15:38 18.56852 -72.52159 3317 ft 224 kts 85°
2026-04-21 15:38 18.56962 -72.50530 3318 ft 224 kts 85°
2026-04-21 15:38 18.57052 -72.48891 3274 ft 225 kts 86°
2026-04-21 15:38 18.57131 -72.47255 3065 ft 224 kts 86°
2026-04-21 15:39 18.57207 -72.45606 2765 ft 222 kts 86°
2026-04-21 15:39 18.57281 -72.44023 2485 ft 213 kts 87°
2026-04-21 15:39 18.57353 -72.42500 2220 ft 203 kts 87°
2026-04-21 15:39 18.57422 -72.41060 1976 ft 192 kts 87°
2026-04-21 15:40 18.57487 -72.39718 1833 ft 174 kts 87°
2026-04-21 15:40 18.57547 -72.38493 1570 ft 163 kts 87°
2026-04-21 15:40 18.57604 -72.37337 1334 ft 154 kts 87°
2026-04-21 15:40 18.57658 -72.36243 1135 ft 140 kts 87°
2026-04-21 15:41 18.57708 -72.35250 956 ft 135 kts 88°
2026-04-21 15:41 18.57756 -72.34268 800 ft 134 kts 88°
2026-04-21 15:41 18.57805 -72.33288 634 ft 133 kts 88°
2026-04-21 15:41 18.57853 -72.32308 464 ft 132 kts 88°
2026-04-21 15:42 18.57903 -72.31351 295 ft 130 kts 88°
2026-04-21 15:42 18.57950 -72.30399 157 ft 129 kts 88°
2026-04-21 15:42 18.57988 -72.29597 152 ft 71 kts 89°
2026-04-21 15:42 18.58000 -72.29304 155 ft 29 kts 79°
2026-04-21 15:43 18.58017 -72.29171 155 ft 7 kts 167°
2026-04-21 15:43 18.58005 -72.29211 155 ft 6 kts 264°
2026-04-21 15:43 18.57999 -72.29265 155 ft 8 kts 264°
2026-04-21 15:43 18.57995 -72.29328 155 ft 9 kts 269°
2026-04-21 15:44 18.57994 -72.29406 154 ft 11 kts 264°
2026-04-21 15:44 18.57939 -72.29466 153 ft 12 kts 187°
2026-04-21 15:44 18.57856 -72.29466 154 ft 11 kts 177°
2026-04-21 15:44 18.57778 -72.29462 155 ft 10 kts 176°
2026-04-21 15:45 18.57706 -72.29467 157 ft 9 kts 212°
2026-04-21 15:45 18.57661 -72.29501 157 ft 7 kts 194°
2026-04-21 15:45 18.57617 -72.29509 158 ft 1 kts 190°